GLO1713 SBCY-SBBR

Flight info

Callsign GLO1713
Flight time 1h 15m
Altitude 37000
Route TORAB UZ8 MABMA DCT UBSUS
Aircraft B738/M-SDE2E3FGHIRWXY/LB1

Departure

Time 2026-04-20 21:58
Airport Várzea Grande–Marechal Rondon International Airport (SBCY)

Arrival

Time 2026-04-20 23:14
Airport Presidente Juscelino Kubitschek International Airport (SBBR)
Time Latitude Longitude Altitude Speed Heading
2026-04-20 21:57 -15.64454 -56.12117 595 ft 19 kts 333°
2026-04-20 21:57 -15.64423 -56.12158 595 ft 6 kts 322°
2026-04-20 21:57 -15.64409 -56.12149 595 ft 2 kts 114°
2026-04-20 21:57 -15.64432 -56.12128 595 ft 6 kts 148°
2026-04-20 21:58 -15.64523 -56.12078 594 ft 35 kts 153°
2026-04-20 21:58 -15.64965 -56.11843 596 ft 108 kts 153°
2026-04-20 21:58 -15.65813 -56.11382 653 ft 161 kts 150°
2026-04-20 21:58 -15.66819 -56.10815 1406 ft 162 kts 151°
2026-04-20 21:59 -15.67712 -56.10112 2153 ft 166 kts 116°
2026-04-20 21:59 -15.67859 -56.08875 2635 ft 192 kts 85°
2026-04-20 21:59 -15.67744 -56.07381 2884 ft 222 kts 85°
2026-04-20 21:59 -15.67647 -56.05708 3243 ft 240 kts 85°
2026-04-20 22:00 -15.67570 -56.03892 3572 ft 265 kts 86°
2026-04-20 22:00 -15.67509 -56.01936 4299 ft 273 kts 87°
2026-04-20 22:00 -15.67460 -55.99979 5281 ft 270 kts 87°
2026-04-20 22:00 -15.67402 -55.98038 5714 ft 269 kts 84°
2026-04-20 22:01 -15.67039 -55.96127 5884 ft 273 kts 72°
2026-04-20 22:01 -15.66510 -55.94234 5889 ft 273 kts 73°
2026-04-20 22:01 -15.66003 -55.92327 6331 ft 274 kts 74°
2026-04-20 22:01 -15.65530 -55.90420 7173 ft 275 kts 76°
2026-04-20 22:02 -15.65307 -55.88437 7891 ft 282 kts 96°
2026-04-20 22:02 -15.65786 -55.86485 8829 ft 280 kts 109°
2026-04-20 22:02 -15.66541 -55.84608 9588 ft 284 kts 114°
2026-04-20 22:02 -15.67386 -55.82717 10194 ft 296 kts 114°
2026-04-20 22:03 -15.68300 -55.80705 10368 ft 321 kts 115°
2026-04-20 22:03 -15.69280 -55.78535 10558 ft 343 kts 114°
2026-04-20 22:03 -15.70301 -55.76250 11028 ft 353 kts 114°
2026-04-20 22:03 -15.71333 -55.73918 11653 ft 358 kts 114°
2026-04-20 22:04 -15.72374 -55.71551 12333 ft 362 kts 114°
2026-04-20 22:04 -15.73419 -55.69157 12999 ft 366 kts 114°
2026-04-20 22:04 -15.74471 -55.66743 13665 ft 369 kts 114°
2026-04-20 22:04 -15.75530 -55.64305 14329 ft 371 kts 114°
2026-04-20 22:05 -15.76593 -55.61853 14966 ft 374 kts 114°
2026-04-20 22:05 -15.77667 -55.59376 15584 ft 378 kts 114°
2026-04-20 22:05 -15.78748 -55.56879 16182 ft 380 kts 114°
2026-04-20 22:05 -15.79837 -55.54366 16775 ft 383 kts 113°
2026-04-20 22:06 -15.80931 -55.51836 17348 ft 386 kts 113°
2026-04-20 22:06 -15.82035 -55.49285 17887 ft 389 kts 113°
2026-04-20 22:06 -15.83146 -55.46714 18415 ft 391 kts 113°
2026-04-20 22:06 -15.84265 -55.44126 18909 ft 395 kts 114°
2026-04-20 22:07 -15.85394 -55.41514 19397 ft 398 kts 114°
2026-04-20 22:07 -15.86530 -55.38884 19862 ft 401 kts 114°
2026-04-20 22:07 -15.87676 -55.36232 20332 ft 404 kts 114°
2026-04-20 22:07 -15.88829 -55.33560 20781 ft 407 kts 114°
2026-04-20 22:08 -15.89990 -55.30870 21244 ft 409 kts 114°
2026-04-20 22:08 -15.91155 -55.28171 21672 ft 411 kts 114°
2026-04-20 22:08 -15.92329 -55.25448 22078 ft 414 kts 115°
2026-04-20 22:08 -15.93511 -55.22705 22466 ft 417 kts 115°
2026-04-20 22:09 -15.94699 -55.19944 22843 ft 420 kts 115°
2026-04-20 22:09 -15.95894 -55.17170 23221 ft 422 kts 115°
2026-04-20 22:09 -15.97099 -55.14372 23584 ft 425 kts 115°
2026-04-20 22:09 -15.98216 -55.11523 23931 ft 428 kts 111°
2026-04-20 22:10 -15.99187 -55.08589 24277 ft 431 kts 109°
2026-04-20 22:10 -16.00103 -55.05613 24584 ft 434 kts 109°
2026-04-20 22:10 -16.01012 -55.02617 24899 ft 436 kts 109°
2026-04-20 22:10 -16.01937 -54.99599 25198 ft 439 kts 109°
2026-04-20 22:11 -16.02881 -54.96567 25510 ft 442 kts 110°
2026-04-20 22:11 -16.03842 -54.93522 25812 ft 445 kts 110°
2026-04-20 22:11 -16.04815 -54.90462 26086 ft 447 kts 110°
2026-04-20 22:11 -16.05797 -54.87390 26369 ft 450 kts 110°
2026-04-20 22:12 -16.06788 -54.84295 26651 ft 452 kts 110°
2026-04-20 22:12 -16.07784 -54.81185 26931 ft 454 kts 110°
2026-04-20 22:12 -16.08782 -54.78062 27189 ft 457 kts 110°
2026-04-20 22:12 -16.09787 -54.74914 27444 ft 460 kts 110°
2026-04-20 22:13 -16.10796 -54.71751 27710 ft 462 kts 110°
2026-04-20 22:13 -16.11810 -54.68572 27973 ft 464 kts 110°
2026-04-20 22:13 -16.12825 -54.65384 28225 ft 466 kts 110°
2026-04-20 22:13 -16.13846 -54.62176 28461 ft 469 kts 110°
2026-04-20 22:14 -16.14873 -54.58949 28687 ft 471 kts 110°
2026-04-20 22:14 -16.15904 -54.55707 28933 ft 473 kts 111°
2026-04-20 22:14 -16.16939 -54.52451 29161 ft 475 kts 111°
2026-04-20 22:14 -16.17978 -54.49179 29370 ft 477 kts 111°
2026-04-20 22:15 -16.19020 -54.45901 29581 ft 479 kts 111°
2026-04-20 22:15 -16.20066 -54.42603 29787 ft 481 kts 111°
2026-04-20 22:15 -16.21115 -54.39292 30012 ft 483 kts 111°
2026-04-20 22:15 -16.22167 -54.35972 30277 ft 483 kts 111°
2026-04-20 22:16 -16.23270 -54.32689 30630 ft 480 kts 114°
2026-04-20 22:16 -16.24488 -54.29468 31015 ft 477 kts 115°
2026-04-20 22:16 -16.25755 -54.26287 31368 ft 475 kts 116°
2026-04-20 22:16 -16.27036 -54.23122 31691 ft 474 kts 116°
2026-04-20 22:17 -16.28309 -54.19963 32019 ft 473 kts 116°
2026-04-20 22:17 -16.29571 -54.16803 32367 ft 472 kts 116°
2026-04-20 22:17 -16.30818 -54.13647 32711 ft 470 kts 116°
2026-04-20 22:17 -16.32052 -54.10507 33103 ft 468 kts 116°
2026-04-20 22:18 -16.33279 -54.07371 33452 ft 467 kts 116°
2026-04-20 22:18 -16.34502 -54.04242 33758 ft 466 kts 116°
2026-04-20 22:18 -16.35719 -54.01124 34085 ft 465 kts 116°
2026-04-20 22:18 -16.36938 -53.98005 34383 ft 465 kts 116°
2026-04-20 22:19 -16.38153 -53.94892 34706 ft 463 kts 116°
2026-04-20 22:19 -16.39362 -53.91792 34929 ft 464 kts 116°
2026-04-20 22:19 -16.40584 -53.88664 34909 ft 467 kts 116°
2026-04-20 22:20 -16.43027 -53.82397 34907 ft 465 kts 116°
2026-04-20 22:20 -16.45443 -53.76185 34911 ft 461 kts 116°
2026-04-20 22:21 -16.47846 -53.70007 34917 ft 459 kts 116°
2026-04-20 22:21 -16.50241 -53.63846 34918 ft 459 kts 116°
2026-04-20 22:22 -16.52632 -53.57681 34920 ft 459 kts 116°
2026-04-20 22:22 -16.55017 -53.51492 34917 ft 461 kts 116°
2026-04-20 22:23 -16.57405 -53.45284 34922 ft 462 kts 116°
2026-04-20 22:23 -16.59801 -53.39053 34919 ft 464 kts 116°
2026-04-20 22:24 -16.62205 -53.32794 34912 ft 465 kts 116°
2026-04-20 22:24 -16.64612 -53.26520 34927 ft 467 kts 116°
2026-04-20 22:25 -16.67026 -53.20224 34917 ft 468 kts 116°
2026-04-20 22:25 -16.69444 -53.13910 34916 ft 469 kts 116°
2026-04-20 22:26 -16.71327 -53.07370 34910 ft 477 kts 101°
2026-04-20 22:26 -16.72052 -53.00489 34923 ft 477 kts 99°
2026-04-20 22:27 -16.73041 -52.90152 34911 ft 477 kts 100°
2026-04-20 22:27 -16.73746 -52.83287 34917 ft 476 kts 100°
2026-04-20 22:28 -16.74345 -52.77587 34913 ft 475 kts 100°
2026-04-20 22:28 -16.75070 -52.70736 34917 ft 475 kts 100°
2026-04-20 22:29 -16.75906 -52.62783 34911 ft 474 kts 100°
2026-04-20 22:29 -16.76506 -52.57055 34922 ft 474 kts 100°
2026-04-20 22:30 -16.77331 -52.49122 34920 ft 473 kts 100°
2026-04-20 22:30 -16.78040 -52.42295 34914 ft 473 kts 100°
2026-04-20 22:31 -16.78746 -52.35474 34923 ft 473 kts 100°
2026-04-20 22:31 -16.79332 -52.29795 34918 ft 473 kts 100°
2026-04-20 22:32 -16.80034 -52.22969 34928 ft 473 kts 100°
2026-04-20 22:32 -16.80734 -52.16132 34934 ft 474 kts 100°
2026-04-20 22:33 -16.81435 -52.09287 34930 ft 474 kts 100°
2026-04-20 22:33 -16.82132 -52.02443 34940 ft 474 kts 100°
2026-04-20 22:34 -16.82825 -51.95599 34933 ft 475 kts 100°
2026-04-20 22:34 -16.83519 -51.88745 34943 ft 475 kts 100°
2026-04-20 22:35 -16.84211 -51.81885 34934 ft 475 kts 100°
2026-04-20 22:35 -16.84901 -51.75015 34940 ft 476 kts 100°
2026-04-20 22:36 -16.85588 -51.68146 34947 ft 476 kts 100°
2026-04-20 22:36 -16.86274 -51.61272 34941 ft 476 kts 100°
2026-04-20 22:37 -16.86959 -51.54394 34950 ft 476 kts 100°
2026-04-20 22:37 -16.87637 -51.47558 34950 ft 477 kts 100°
2026-04-20 22:38 -16.88316 -51.40678 34955 ft 476 kts 100°
2026-04-20 22:38 -16.88993 -51.33799 34957 ft 476 kts 100°
2026-04-20 22:39 -16.89667 -51.26930 34964 ft 476 kts 100°
2026-04-20 22:39 -16.90339 -51.20060 34962 ft 476 kts 100°
2026-04-20 22:40 -16.91008 -51.13188 34970 ft 475 kts 100°
2026-04-20 22:40 -16.91674 -51.06319 34978 ft 475 kts 100°
2026-04-20 22:41 -16.92339 -50.99450 34974 ft 476 kts 100°
2026-04-20 22:41 -16.93002 -50.92575 34977 ft 476 kts 100°
2026-04-20 22:42 -16.93661 -50.85700 34981 ft 475 kts 100°
2026-04-20 22:42 -16.94319 -50.78836 34983 ft 475 kts 100°
2026-04-20 22:43 -16.94974 -50.71963 34989 ft 475 kts 100°
2026-04-20 22:43 -16.95627 -50.65092 35004 ft 476 kts 100°
2026-04-20 22:44 -16.96279 -50.58219 35001 ft 476 kts 100°
2026-04-20 22:44 -16.96928 -50.51337 35000 ft 476 kts 100°
2026-04-20 22:45 -16.97575 -50.44452 35001 ft 476 kts 100°
2026-04-20 22:45 -16.98220 -50.37561 35009 ft 477 kts 100°
2026-04-20 22:46 -16.98864 -50.30667 35004 ft 477 kts 100°
2026-04-20 22:46 -16.99506 -50.23772 35008 ft 477 kts 100°
2026-04-20 22:47 -17.00144 -50.16874 35003 ft 477 kts 100°
2026-04-20 22:47 -17.00778 -50.09985 35006 ft 476 kts 100°
2026-04-20 22:48 -17.01407 -50.03150 35021 ft 476 kts 100°
2026-04-20 22:48 -17.02037 -49.96271 35023 ft 476 kts 100°
2026-04-20 22:49 -17.02667 -49.89387 35014 ft 476 kts 101°
2026-04-20 22:49 -17.03293 -49.82503 35019 ft 476 kts 101°
2026-04-20 22:50 -17.03413 -49.79033 34993 ft 484 kts 87°
2026-04-20 22:50 -17.02605 -49.75604 35031 ft 492 kts 71°
2026-04-20 22:50 -17.00921 -49.72451 34515 ft 504 kts 55°
2026-04-20 22:50 -16.98809 -49.69540 33925 ft 502 kts 54°
2026-04-20 22:51 -16.96680 -49.66664 33469 ft 498 kts 54°
2026-04-20 22:51 -16.94576 -49.63813 32996 ft 493 kts 54°
2026-04-20 22:51 -16.92479 -49.60934 32521 ft 489 kts 55°
2026-04-20 22:51 -16.90441 -49.58102 32056 ft 485 kts 55°
2026-04-20 22:52 -16.88437 -49.55294 31597 ft 481 kts 55°
2026-04-20 22:52 -16.86477 -49.52533 31141 ft 478 kts 56°
2026-04-20 22:52 -16.84507 -49.49757 30692 ft 474 kts 55°
2026-04-20 22:52 -16.82553 -49.47005 30243 ft 470 kts 56°
2026-04-20 22:53 -16.80614 -49.44278 29797 ft 466 kts 55°
2026-04-20 22:53 -16.78688 -49.41570 29341 ft 462 kts 55°
2026-04-20 22:53 -16.76779 -49.38889 28880 ft 458 kts 55°
2026-04-20 22:53 -16.74886 -49.36234 28408 ft 455 kts 55°
2026-04-20 22:54 -16.73006 -49.33598 27960 ft 451 kts 55°
2026-04-20 22:54 -16.71145 -49.30987 27505 ft 446 kts 55°
2026-04-20 22:54 -16.69298 -49.28399 27052 ft 442 kts 55°
2026-04-20 22:54 -16.67469 -49.25834 26610 ft 438 kts 55°
2026-04-20 22:55 -16.65659 -49.23300 26159 ft 434 kts 55°
2026-04-20 22:55 -16.63863 -49.20783 25729 ft 430 kts 55°
2026-04-20 22:55 -16.62152 -49.18265 25478 ft 421 kts 57°
2026-04-20 22:55 -16.60521 -49.15755 25104 ft 416 kts 58°
2026-04-20 22:56 -16.58925 -49.13258 24700 ft 412 kts 58°
2026-04-20 22:56 -16.57343 -49.10783 24263 ft 409 kts 58°
2026-04-20 22:56 -16.55768 -49.08331 23840 ft 405 kts 57°
2026-04-20 22:56 -16.54199 -49.05902 23408 ft 402 kts 57°
2026-04-20 22:57 -16.52639 -49.03494 22983 ft 399 kts 57°
2026-04-20 22:57 -16.51087 -49.01106 22557 ft 396 kts 57°
2026-04-20 22:57 -16.49549 -48.98741 22140 ft 393 kts 57°
2026-04-20 22:57 -16.48023 -48.96398 21721 ft 389 kts 57°
2026-04-20 22:58 -16.46507 -48.94070 21307 ft 386 kts 57°
2026-04-20 22:58 -16.45006 -48.91766 20894 ft 383 kts 57°
2026-04-20 22:58 -16.43514 -48.89477 20488 ft 380 kts 57°
2026-04-20 22:58 -16.42054 -48.87239 20085 ft 377 kts 57°
2026-04-20 22:59 -16.40588 -48.84993 19684 ft 374 kts 57°
2026-04-20 22:59 -16.39134 -48.82766 19279 ft 371 kts 57°
2026-04-20 22:59 -16.37690 -48.80552 18875 ft 368 kts 57°
2026-04-20 22:59 -16.36257 -48.78357 18487 ft 365 kts 57°
2026-04-20 23:00 -16.34837 -48.76181 18089 ft 362 kts 57°
2026-04-20 23:00 -16.33427 -48.74024 17696 ft 359 kts 57°
2026-04-20 23:00 -16.32029 -48.71883 17303 ft 356 kts 57°
2026-04-20 23:00 -16.30641 -48.69759 16911 ft 353 kts 57°
2026-04-20 23:01 -16.29267 -48.67656 16522 ft 350 kts 57°
2026-04-20 23:01 -16.27901 -48.65565 16136 ft 348 kts 56°
2026-04-20 23:01 -16.26544 -48.63492 15745 ft 345 kts 56°
2026-04-20 23:01 -16.25195 -48.61433 15357 ft 343 kts 56°
2026-04-20 23:02 -16.23935 -48.59340 14964 ft 340 kts 60°
2026-04-20 23:02 -16.22704 -48.57241 14577 ft 338 kts 58°
2026-04-20 23:02 -16.21449 -48.55178 14189 ft 336 kts 58°
2026-04-20 23:02 -16.20206 -48.53130 13800 ft 334 kts 58°
2026-04-20 23:03 -16.18977 -48.51101 13547 ft 327 kts 58°
2026-04-20 23:03 -16.17788 -48.49135 13475 ft 315 kts 58°
2026-04-20 23:03 -16.16643 -48.47243 13325 ft 304 kts 58°
2026-04-20 23:03 -16.15528 -48.45402 13013 ft 298 kts 58°
2026-04-20 23:04 -16.14430 -48.43591 12626 ft 294 kts 58°
2026-04-20 23:04 -16.13340 -48.41793 12146 ft 293 kts 58°
2026-04-20 23:04 -16.12257 -48.40006 11661 ft 292 kts 58°
2026-04-20 23:04 -16.11177 -48.38225 11184 ft 290 kts 58°
2026-04-20 23:05 -16.10106 -48.36460 10731 ft 288 kts 58°
2026-04-20 23:05 -16.09043 -48.34707 10270 ft 286 kts 58°
2026-04-20 23:05 -16.07985 -48.32964 9808 ft 284 kts 58°
2026-04-20 23:05 -16.06933 -48.31230 9351 ft 282 kts 58°
2026-04-20 23:06 -16.05893 -48.29515 8928 ft 278 kts 58°
2026-04-20 23:06 -16.04873 -48.27837 8639 ft 270 kts 58°
2026-04-20 23:06 -16.03885 -48.26209 8347 ft 263 kts 58°
2026-04-20 23:06 -16.02925 -48.24632 8111 ft 253 kts 58°
2026-04-20 23:07 -16.01998 -48.23109 7849 ft 246 kts 58°
2026-04-20 23:07 -16.01100 -48.21630 7600 ft 239 kts 58°
2026-04-20 23:07 -16.00223 -48.20186 7288 ft 235 kts 59°
2026-04-20 23:07 -15.99192 -48.18881 6885 ft 236 kts 34°
2026-04-20 23:08 -15.97644 -48.18380 6464 ft 236 kts
2026-04-20 23:08 -15.96007 -48.18423 6147 ft 235 kts 356°
2026-04-20 23:08 -15.94357 -48.18499 5933 ft 243 kts
2026-04-20 23:08 -15.92917 -48.17714 5810 ft 233 kts 50°
2026-04-20 23:09 -15.92041 -48.16335 5684 ft 226 kts 60°
2026-04-20 23:09 -15.91273 -48.14972 5558 ft 210 kts 60°
2026-04-20 23:09 -15.90566 -48.13726 5483 ft 191 kts 60°
2026-04-20 23:09 -15.89914 -48.12582 5481 ft 182 kts 60°
2026-04-20 23:10 -15.89295 -48.11421 5498 ft 186 kts 70°
2026-04-20 23:10 -15.89061 -48.10111 5517 ft 190 kts 86°
2026-04-20 23:10 -15.88978 -48.08752 5493 ft 185 kts 87°
2026-04-20 23:10 -15.88906 -48.07473 5471 ft 175 kts 87°
2026-04-20 23:11 -15.88839 -48.06212 5511 ft 170 kts 86°
2026-04-20 23:11 -15.88773 -48.05027 5497 ft 161 kts 85°
2026-04-20 23:11 -15.88702 -48.03878 5370 ft 159 kts 85°
2026-04-20 23:11 -15.88627 -48.02732 5161 ft 158 kts 85°
2026-04-20 23:12 -15.88554 -48.01595 4954 ft 158 kts 85°
2026-04-20 23:12 -15.88481 -48.00454 4759 ft 158 kts 85°
2026-04-20 23:12 -15.88408 -47.99312 4543 ft 158 kts 85°
2026-04-20 23:12 -15.88335 -47.98178 4334 ft 157 kts 85°
2026-04-20 23:13 -15.88262 -47.97046 4130 ft 157 kts 85°
2026-04-20 23:13 -15.88190 -47.95923 3917 ft 156 kts 85°
2026-04-20 23:13 -15.88118 -47.94802 3710 ft 155 kts 85°
2026-04-20 23:13 -15.88048 -47.93695 3509 ft 149 kts 85°
2026-04-20 23:14 -15.87983 -47.92730 3472 ft 107 kts 86°
2026-04-20 23:14 -15.87949 -47.92188 3468 ft 48 kts 86°
2026-04-20 23:14 -15.87926 -47.91935 3461 ft 29 kts 74°
2026-04-20 23:14 -15.87851 -47.91764 3457 ft 17 kts 56°
2026-04-20 23:15 -15.87787 -47.91663 3452 ft 16 kts 55°
2026-04-20 23:15 -15.87724 -47.91569 3455 ft 16 kts 54°
2026-04-20 23:15 -15.87650 -47.91552 3458 ft 10 kts 357°
2026-04-20 23:15 -15.87580 -47.91557 3457 ft 10 kts 356°
2026-04-20 23:16 -15.87512 -47.91562 3462 ft 10 kts 356°
2026-04-20 23:16 -15.87448 -47.91566 3469 ft 9 kts 357°
2026-04-20 23:16 -15.87380 -47.91570 3469 ft 11 kts 356°
2026-04-20 23:16 -15.87329 -47.91573 3469 ft 12 kts 355°
2026-04-20 23:17 -15.87253 -47.91587 3469 ft 9 kts 317°
2026-04-20 23:17 -15.87232 -47.91633 3472 ft 0 kts 282°
2026-04-20 23:18 -15.87228 -47.91646 3475 ft 4 kts 288°
2026-04-20 23:18 -15.87218 -47.91661 3471 ft 4 kts 313°
2026-04-20 23:18 -15.87218 -47.91662 3475 ft 4 kts 313°
2026-04-20 23:18 -15.87204 -47.91671 3473 ft 4 kts 334°
2026-04-20 23:19 -15.87186 -47.91687 3474 ft 4 kts 294°
2026-04-20 23:19 -15.87186 -47.91706 3472 ft 4 kts 269°
2026-04-20 23:19 -15.87186 -47.91720 3473 ft 1 kts 267°
2026-04-20 23:19 -15.87187 -47.91727 3474 ft 1 kts 267°
2026-04-20 23:20 -15.87187 -47.91729 3475 ft 0 kts 266°
2026-04-20 23:20 -15.87187 -47.91730 3474 ft 0 kts 266°